THOR ABLESTAR DEB, 357

Orbit data source: Space-Track

THOR ABLESTAR DEB, 357 is space debris in LEO originally from a launch on Thu, 29 Jun 1961 UTC launched from the Air Force Eastern Test Range (AFETR). Debris objects in space refer to the collection of defunct objects orbiting the Earth. Examples of debris include non-operational satellites, rocket bodies, and fragments generated from explosions, collisions, or faulty payload assembly.

Loading next visibility...
Identifier
357, 1961-015DX
Orbit
LEO
Last TLE update
19 hours ago
Origin
Manufacturer
Unknown
Mission
Spacecraft
Bus & Motor
Unknown
Mass
Unknown
Launch date (UTC)
1961-06-29 (64 years ago)
Launch vehicle
Unknown
Launch site
Air Force Eastern Test Range (AFETR)
Object type
Payload
Rocket body
Debris
Shape & HBR
Unknown
Radar Cross Section
Small (<0.1 m²)

Expand to show TLE details & history

TLE from 19 hours ago
0 THOR ABLESTAR DEB
1   357U 61015DX  25128.49353577  .00000922  00000-0  58245-3 0  9999
2   357  66.8078 184.3640 0004891 170.5393 189.5788 14.08553655239257
Epoch: 2025-05-08T11:50Z
Definitive object data (Epoch: 2025-05-08T11:50:41.49Z)
Latitude
-0.00002°
Longitude
140.12788°
Altitude
869.913 km
Speed
7.416 km/s
True Right ascension
12h 17m 27s
True Declination
0° 00' 00"
Sunlit
Object was in full shadow at TLE epoch
Visualization TLE readout
Latitude
-35.80865°
Longitude
120.27765°
Altitude
880.118 km
Speed
7.41 km/s
Apparent Right ascension
07h 26m 44s
Apparent Declination
-59° 08' 25"
Sunlit
Object is in full shadow
Visualization observer readout
Local Sidereal Time
14:33:02
Azimuth
221.052° SW
Elevation
-41.534°
Doppler factor
1
Orbital elements
Apogee altitude
866.246 km
Perigee altitude
859.163 km
Semi-major axis
7,240.841 km
Eccentricity
0.0004891
Inclination
66.8078°
RAAN
184.364°
Arg. of periapsis
170.5393°
True anomaly
189.56948°
Mean anomaly
189.5788°
Eccentric anomaly
189.57414°
Mean motion
3.52257 °/min
BSTAR
0.00058245
Orbital period
102.2 mins
Loading maneuver chart data...
Loading SW <> Apogee altitude chart data...

THOR ABLESTAR DEB Visibility forecast

Observer location: undefined°, undefined°

Span
Click to sort rows by Start time (UTC) header in descending order
Start Az.
Max El. time (UTC)
Max El. Az.
Max El.
End time (UTC)
End Az.
7 mins2025-05-09 06:47:12.926Z269.803° W2025-05-09 06:51:12.926Z320.91° NNW20.913°2025-05-09 06:54:12.926Z357.148° N
9 mins2025-05-09 13:58:12.926Z346.042° N2025-05-09 14:02:12.926Z62.319° ENE38.756°2025-05-09 14:07:12.926Z132.455° SE
6 mins2025-05-09 15:44:12.926Z287.279° WNW2025-05-09 15:46:12.926Z261.226° W20.656°2025-05-09 15:50:12.926Z210.578° SW
10 mins2025-05-10 04:52:12.926Z196.405° SSW2025-05-10 04:57:12.926Z85.847° E42.703°2025-05-10 05:02:12.926Z33.926° NE
|